Location: Newark
(45.9167°N, 5.5000°E)
Time: 20:21:32
(UTC+00:00)

ISS - Pass Details

Date: 25 January 2020
Orbit: 415 x 423 km, 51.6° (Epoch: 28 February)

Event Time Altitude Azimuth Distance (km) Brightness Sun altitude
Rises 18:06:44 0° 257° (WSW) 2,375 1.9 -16.3°
Reaches altitude 10° 18:08:53 10° 262° (W) 1,511 0.4 -16.7°
Maximum altitude 18:12:12 51° 340° (NNW) 544 -3.2 -17.2°
Enters shadow 18:13:07 37° 29° (NNE) 672 -3.1 -17.4°
